Wappingers Falls, NY

8:06 AM EST on February 24, 2017 (GMT -0500)
Dutchess County

Weather History for KPOU - December, 2012

Change the Weather History Date:

Tuesday, December 11, 2012

  Actual Average Record
Temperature  
Mean Temperature 38 °F 33 °F  
Max Temperature 48 °F 42 °F 63 °F (1966)
Min Temperature 28 °F 24 °F -5 °F (1958)
Degree Days  
Heating Degree Days 27 32  
Month to date heating degree days 271 335  
Since 1 July heating degree days 1417 1613  
Cooling Degree Days 0 0  
Month to date cooling degree days 0 0  
Year to date cooling degree days 895 672  
Moisture  
Dew Point 33 °F    
Average Humidity 67    
Maximum Humidity 89    
Minimum Humidity 45    
Precipitation  
Precipitation 0.02 in 0.12 in 2.39 in (1952)
Month to date precipitation 0.61 1.33  
Year to date precipitation 32.87 44.33  
Sea Level Pressure  
Sea Level Pressure 29.89 in    
Wind  
Wind Speed 4 mph (NNW)    
Max Wind Speed 14 mph    
Max Gust Speed 20 mph    
Visibility 10 miles    
Events Rain    
T = Trace of Precipitation, MM = Missing Value Source: NWS Daily Summary

Daily Weather History Graph

Daily Weather History Graph

Search for Another Location

Airport or City:

Trip Planner

Search our weather history database for the weather conditions in past years. The results will help you decide how hot, cold, wet, or windy it might be!

Date:

Astronomy

Dec. 11, 2012 Rise Set
Actual Time 7:12 AM EST 4:25 PM EST
Civil Twilight 6:41 AM EST 4:56 PM EST
Nautical Twilight 6:06 AM EST 5:31 PM EST
Astronomical Twilight 5:32 AM EST 6:05 PM EST
Moon 5:03 AM EST (12/11) 3:02 PM EST (12/11)
Length of Visible Light 10h 15m
Length of Day
9h 12m
Waning Crescent, 4% of the Moon is Illuminated
Dec 11
Waning Crescent
Dec 13
New
Dec 20
First Quarter
Dec 28
Full
Jan 4
Last Quarter

Hourly Weather History & Observations

Time (EST) Temp. Windchill Dew Point Humidity Pressure Visibility Wind Dir Wind Speed Gust Speed Precip Events Conditions
12:53 AM 44.1 °F 42.5 °F 39.9 °F 85% 29.65 in 3.0 mi North 3.5 mph - 0.01 in Rain Light Rain
1:00 AM 44.6 °F 43.1 °F 39.2 °F 81% 29.66 in 4.0 mi Variable 3.5 mph - 0.00 in Rain Light Rain
1:50 AM 42.8 °F - 39.2 °F 87% 29.68 in 10.0 mi Calm Calm - 0.01 in   Overcast
1:53 AM 43.0 °F - 39.9 °F 89% 29.67 in 10.0 mi Calm Calm - 0.01 in   Overcast
2:32 AM 42.8 °F - 39.2 °F 87% 29.71 in 10.0 mi Calm Calm - N/A   Overcast
2:43 AM 42.8 °F - 39.2 °F 87% 29.72 in 10.0 mi Calm Calm - N/A   Overcast
2:50 AM 42.8 °F - 41.0 °F 93% 29.72 in 10.0 mi Calm Calm - N/A   Overcast
2:53 AM 43.0 °F - 39.9 °F 89% 29.71 in 10.0 mi Calm Calm - N/A   Overcast
3:53 AM 43.0 °F 39.5 °F 39.0 °F 86% 29.70 in 10.0 mi North 5.8 mph - 0.00 in   Overcast
4:53 AM 42.1 °F 38.4 °F 37.9 °F 85% 29.72 in 10.0 mi North 5.8 mph - 0.00 in   Overcast
5:53 AM 42.1 °F - 37.9 °F 85% 29.75 in 10.0 mi Calm Calm - N/A   Overcast
6:53 AM 42.1 °F - 37.9 °F 85% 29.81 in 10.0 mi Calm Calm - N/A   Overcast
7:16 AM 42.8 °F - 37.4 °F 81% 29.83 in 10.0 mi Calm Calm - N/A   Overcast
7:53 AM 42.1 °F - 37.9 °F 85% 29.85 in 10.0 mi Calm Calm - N/A   Overcast
8:01 AM 41.0 °F - 37.4 °F 87% 29.86 in 10.0 mi Calm Calm - N/A   Mostly Cloudy
8:53 AM 43.0 °F - 37.9 °F 82% 29.88 in 10.0 mi Calm Calm - N/A   Clear
9:02 AM 42.8 °F 41.1 °F 37.4 °F 81% 29.88 in 10.0 mi North 3.5 mph - N/A   Scattered Clouds
9:53 AM 43.0 °F 39.5 °F 37.0 °F 80% 29.88 in 10.0 mi North 5.8 mph - N/A   Scattered Clouds
10:53 AM 46.0 °F 41.4 °F 30.9 °F 56% 29.89 in 10.0 mi NW 9.2 mph - N/A   Scattered Clouds
11:53 AM 46.9 °F - 30.9 °F 54% 29.90 in 10.0 mi Variable 6.9 mph - N/A   Mostly Cloudy
12:53 PM 46.9 °F - 28.0 °F 48% 29.92 in 10.0 mi North 6.9 mph - N/A   Mostly Cloudy
1:53 PM 46.0 °F 40.6 °F 27.0 °F 47% 29.94 in 10.0 mi WNW 11.5 mph 17.3 mph N/A   Overcast
2:10 PM 46.4 °F 41.1 °F 26.6 °F 46% 29.95 in 10.0 mi WNW 11.5 mph - N/A   Mostly Cloudy
2:53 PM 45.0 °F 40.6 °F 26.1 °F 48% 29.97 in 10.0 mi WNW 8.1 mph - N/A   Overcast
3:53 PM 43.0 °F 36.0 °F 24.1 °F 47% 30.00 in 10.0 mi NW 13.8 mph 19.6 mph N/A   Overcast
4:53 PM 42.1 °F 39.2 °F 23.0 °F 47% 30.03 in 10.0 mi NNW 4.6 mph - N/A   Overcast
5:53 PM 42.1 °F 37.7 °F 23.0 °F 47% 30.06 in 10.0 mi NW 6.9 mph - N/A   Overcast
6:53 PM 41.0 °F 35.8 °F 23.0 °F 49% 30.09 in 10.0 mi NW 8.1 mph - N/A   Overcast
7:53 PM 39.0 °F 35.7 °F 24.1 °F 55% 30.12 in 10.0 mi NNE 4.6 mph - N/A   Overcast
8:53 PM 36.0 °F - 25.0 °F 64% 30.14 in 10.0 mi Calm Calm - N/A   Clear
9:53 PM 34.0 °F - 25.0 °F 70% 30.16 in 10.0 mi Calm Calm - N/A   Scattered Clouds
10:53 PM 30.0 °F - 24.1 °F 79% 30.18 in 10.0 mi Calm Calm - N/A   Clear
11:53 PM 28.9 °F - 24.1 °F 82% 30.19 in 10.0 mi Calm Calm - N/A   Clear